Regional Weather Roundup
Issued by NWS

Home | Current Version | Previous Version | Graphics & Text | Print | Product List | Glossary On
Versions: 1 2 3 4 5 6 7 8 9 10 11 12 13 14 15 16 17 18 19 20 21 22 23 24 25 26 27 28 29 30 31 32 33 34 35 36 37 38 39 40 41 42 43 44 45 46 47 48 49 50
000
ASUS43 KIND 200700
RWRIN

WEATHER ROUNDUP FOR INDIANA
NATIONAL WEATHER SERVICE INDIANAPOLIS IN
300 AM EDT FRI OCT 20 2017

NOTE: "FAIR" INDICATES FEW OR NO CLOUDS BELOW 12,000 FEET WITH NO
SIGNIFICANT WEATHER AND/OR OBSTRUCTIONS TO VISIBILITY.

* - STATION DOES NOT REPORT WEATHER SUCH AS PRECIPITATION OR FOG.

+ - STATION NOT QUALITY CONTROLLED BY THE NATIONAL WEATHER SERVICE.
    USE DATA WITH CAUTION...ESPECIALLY DEWPOINT AND RELATIVE
    HUMIDITY OBSERVATIONS.

INZ001>003-010>013-019-020-200800-
NORTHWEST INDIANA

CITY           SKY/WX    TMP DP  RH WIND       PRES   REMARKS
MONTICELLO +   FAIR      49  48  95 CALM      30.19S

$$

LMZ046-743>745-200800-
SOUTHERN LAKE MICHIGAN

STATION/POSITION TIME  TEMP    WIND        PRES    WAVE
                       AIR SEA DIR/SP/G            HT
                 (UTC) (F)     (DEG/KT/KT) (MB)    (FT)
BURNS HARBOR     0640   61     160/ 10/ 16 1021.7S
MICHIGAN CITY    0630   57     140/ 11/ 12   N/A
5NW MICH CITY    0650   59 58  170/ 12/ 14   N/A     1

$$

INZ004-005-014>016-021>024-200800-
NORTH CENTRAL INDIANA

CITY           SKY/WX    TMP DP  RH WIND       PRES   REMARKS
GOSHEN         FAIR      44  38  79 CALM      30.20F
PERU/GRISSOM   FAIR      50  49  96 S5        30.20S
SOUTH BEND     FAIR      47  39  74 E3        30.20S

$$

INZ006>009-017-018-025>027-200800-
NORTHEAST INDIANA

CITY           SKY/WX    TMP DP  RH WIND       PRES   REMARKS
FORT WAYNE     FAIR      47  43  86 CALM      30.23R
KENDALLVILLE + FAIR      43  38  83 CALM      30.22S

$$

INZ028-029-035-036-043>045-051>053-200800-
WEST CENTRAL INDIANA

CITY           SKY/WX    TMP DP  RH WIND       PRES   REMARKS
LAFAYETTE      FAIR      51  50  96 CALM      30.20R
TERRE HAUTE    FAIR      50  47  89 E3        30.21S

$$

INZ030>032-037>040-046>048-054>057-064-065-200800-
CENTRAL INDIANA

CITY           SKY/WX    TMP DP  RH WIND       PRES   REMARKS
INDIANAPOLIS   FAIR      55  50  83 CALM      30.23S
-EAGLE CREEK   FAIR      51  48  89 CALM      30.22R
KOKOMO +       FAIR      49  47  93 SE5       30.22S
MT COMFORT *+  FAIR      48  48 100 CALM      30.23S
SHELBYVILLE    FAIR      49  45  86 S3        30.23R

$$

INZ033-034-041-042-049-050-058-059-200800-
EAST CENTRAL INDIANA

CITY           SKY/WX    TMP DP  RH WIND       PRES   REMARKS
MUNCIE         FAIR      48  45  89 S3        30.23R
RICHMOND +     FAIR      50  50 100 SW3       30.25R

$$

INZ060-061-067>069-081>083-085>088-200800-
SOUTHWEST INDIANA

CITY           SKY/WX    TMP DP  RH WIND       PRES   REMARKS
EVANSVILLE     FOG       51  49  92 CALM      30.23S VSB 1
HUNTINGBURG +  FAIR      52  51  97 CALM      30.24R

$$

INZ062-063-066-070>080-084-089>092-200800-
SOUTH CENTRAL AND SOUTHEAST INDIANA

CITY           SKY/WX    TMP DP  RH WIND       PRES   REMARKS
BLOOMINGTON    FAIR      50  47  89 CALM      30.23R
MADISON *+     FAIR      48  46  93 CALM      30.26S
SEYMOUR +      FOG       48  46  93 CALM      30.24R VSB 1/2

$$





USA.gov is the U.S. government's official web portal to all federal, state and local government web resources and services.